sat.trackr.live / text

‹ back to catalog

INTELSAT 18 (IS-18)

NORAD 37834 · 2011-056A

PAYLOAD ACTIVE UNKNOWN

§ Identity

Operator
Country
ITSO
Launch date
2011-10-05
Launch site
TYMSC
Launch vehicle
Mass (kg)
RCS (m²)
37.75

Purposes: comms

External: N2YO · Heavens-Above · Gunter

§ Orbital elements

Epoch: 2026-09-19T20:08:14.763264Z

Period
1,436.06 min
Inclination
0.0340°
Eccentricity
0.0002066
Mean motion
1.00274113 rev/d
Perigee alt
35,777.2 km
Apogee alt
35,794.7 km
Semi-major
42,164.1 km
B*
0.0000e+0
RAAN
260.5275°
Arg perigee
283.0714°
Mean anomaly
297.2266°
Rev number
5,476

§ Raw data

INTELSAT 18 (IS-18)1 37834U 11056A   26262.83905976  .00000049  00000+0  00000+0 0  99942 37834   0.0340 260.5275 0002066 283.0714 297.2266  1.00274113 54765

JSON: /api/v1/satellites/37834 · /tle

For live sub-satellite position, see the globe view (requires WebGL).

§ Visibility from observer

Set your observer location to see the next 7 days of passes ≥ 10°. The values pass through the URL so the page stays shareable.

No JS? Fill the form by hand. The geolocation button needs JavaScript.